Time,TemperatureF,DewpointF,PressureIn,WindDirection,WindDirectionDegrees,WindSpeedMPH,WindSpeedGustMPH,Humidity,HourlyPrecipIn,Conditions,Clouds,dailyrainin,SoftwareType,DateUTC
2013-04-12 00:12:00,57.0,13.9,29.65,South,180,1.1,-999.0,18,-99.99,,,0.00,Acu-Link.com,2013-04-12 06:12:00,
2013-04-12 00:28:00,55.9,13.0,29.65,South,180,0.0,-999.0,18,-99.99,,,0.00,Acu-Link.com,2013-04-12 06:28:00,
2013-04-12 00:43:00,55.9,13.0,29.66,South,180,2.2,-999.0,18,-99.99,,,0.00,Acu-Link.com,2013-04-12 06:43:00,
2013-04-12 00:58:00,56.7,13.7,29.65,South,180,0.0,-999.0,18,-99.99,,,0.00,Acu-Link.com,2013-04-12 06:58:00,
2013-04-12 01:13:00,56.1,13.2,29.65,South,180,2.2,-999.0,18,-99.99,,,0.00,Acu-Link.com,2013-04-12 07:13:00,
2013-04-12 01:28:00,56.1,13.2,29.65,South,180,4.7,-999.0,18,-99.99,,,0.00,Acu-Link.com,2013-04-12 07:28:00,
2013-04-12 01:43:00,55.8,13.0,29.65,South,180,1.1,-999.0,18,-99.99,,,0.00,Acu-Link.com,2013-04-12 07:43:00,
2013-04-12 01:58:00,55.2,13.7,29.64,South,180,0.0,-999.0,19,-99.99,,,0.00,Acu-Link.com,2013-04-12 07:58:00,
2013-04-12 02:14:00,55.2,13.7,29.64,South,180,1.7,-999.0,19,-99.99,,,0.00,Acu-Link.com,2013-04-12 08:14:00,
2013-04-12 02:29:00,56.3,14.6,29.65,South,180,6.3,-999.0,19,-99.99,,,0.00,Acu-Link.com,2013-04-12 08:29:00,
2013-04-12 02:44:00,55.8,13.0,29.65,South,180,4.7,-999.0,18,-99.99,,,0.00,Acu-Link.com,2013-04-12 08:44:00,
2013-04-12 02:59:00,55.2,12.5,29.64,South,180,1.7,-999.0,18,-99.99,,,0.00,Acu-Link.com,2013-04-12 08:59:00,
2013-04-12 03:14:00,54.1,12.8,29.64,South,180,1.7,-999.0,19,-99.99,,,0.00,Acu-Link.com,2013-04-12 09:14:00,
2013-04-12 03:29:00,54.3,12.9,29.64,South,180,3.7,-999.0,19,-99.99,,,0.00,Acu-Link.com,2013-04-12 09:29:00,
2013-04-12 03:44:00,53.8,12.5,29.65,South,180,2.7,-999.0,19,-99.99,,,0.00,Acu-Link.com,2013-04-12 09:44:00,
2013-04-12 04:00:00,53.4,12.2,29.65,South,180,4.7,-999.0,19,-99.99,,,0.00,Acu-Link.com,2013-04-12 10:00:00,
2013-04-12 04:15:00,54.0,12.7,29.65,SSE,157,7.3,-999.0,19,-99.99,,,0.00,Acu-Link.com,2013-04-12 10:15:00,
2013-04-12 04:30:00,53.6,12.4,29.65,South,180,4.7,-999.0,19,-99.99,,,0.00,Acu-Link.com,2013-04-12 10:30:00,
2013-04-12 04:45:00,53.2,12.0,29.66,South,180,2.2,-999.0,19,-99.99,,,0.00,Acu-Link.com,2013-04-12 10:45:00,
2013-04-12 05:00:00,52.9,11.8,29.67,South,180,2.7,-999.0,19,-99.99,,,0.00,Acu-Link.com,2013-04-12 11:00:00,
2013-04-12 05:18:00,52.7,12.8,29.67,South,180,1.7,-999.0,20,-99.99,,,0.00,Acu-Link.com,2013-04-12 11:18:00,
2013-04-12 05:51:00,51.4,12.8,29.68,South,180,0.0,-999.0,21,-99.99,,,0.00,Acu-Link.com,2013-04-12 11:51:00,
2013-04-12 06:17:00,50.4,14.0,29.68,South,180,0.0,-999.0,23,-99.99,,,0.00,Acu-Link.com,2013-04-12 12:17:00,
2013-04-12 06:32:00,50.4,15.9,29.68,South,180,2.7,-999.0,25,-99.99,,,0.00,Acu-Link.com,2013-04-12 12:32:00,
2013-04-12 06:47:00,50.7,16.2,29.69,South,180,0.0,-999.0,25,-99.99,,,0.00,Acu-Link.com,2013-04-12 12:47:00,
2013-04-12 07:02:00,50.7,17.1,29.70,South,180,0.0,-999.0,26,-99.99,,,0.00,Acu-Link.com,2013-04-12 13:02:00,
2013-04-12 07:17:00,51.4,14.9,29.71,East,90,0.0,-999.0,23,-99.99,,,0.00,Acu-Link.com,2013-04-12 13:17:00,
2013-04-12 07:32:00,53.1,15.3,29.72,East,90,1.1,-999.0,22,-99.99,,,0.00,Acu-Link.com,2013-04-12 13:32:00,
2013-04-12 07:47:00,54.5,14.3,29.72,East,90,2.7,-999.0,20,-99.99,,,0.00,Acu-Link.com,2013-04-12 13:47:00,
2013-04-12 08:02:00,55.8,15.3,29.72,East,90,0.0,-999.0,20,-99.99,,,0.00,Acu-Link.com,2013-04-12 14:02:00,
2013-04-12 08:18:00,61.5,17.6,29.72,East,90,2.2,-999.0,18,-99.99,,,0.00,Acu-Link.com,2013-04-12 14:18:00,
2013-04-12 08:48:00,65.5,16.6,29.74,East,90,1.7,-999.0,15,-99.99,,,0.00,Acu-Link.com,2013-04-12 14:48:00,
2013-04-12 09:03:00,69.3,16.4,29.72,East,90,2.7,-999.0,13,-99.99,,,0.00,Acu-Link.com,2013-04-12 15:03:00,
2013-04-12 09:18:00,67.1,16.3,29.74,North,0,5.8,-999.0,14,-99.99,,,0.00,Acu-Link.com,2013-04-12 15:18:00,
2013-04-12 09:33:00,67.3,16.5,29.74,North,0,3.7,-999.0,14,-99.99,,,0.00,Acu-Link.com,2013-04-12 15:33:00,
2013-04-12 09:48:00,66.2,17.2,29.73,North,0,5.8,-999.0,15,-99.99,,,0.00,Acu-Link.com,2013-04-12 15:48:00,
2013-04-12 10:03:00,66.6,17.5,29.74,NNE,22,5.3,-999.0,15,-99.99,,,0.00,Acu-Link.com,2013-04-12 16:03:00,
2013-04-12 10:18:00,70.2,18.8,29.73,ENE,67,3.7,-999.0,14,-99.99,,,0.00,Acu-Link.com,2013-04-12 16:18:00,
2013-04-12 10:36:00,73.0,17.4,29.72,NNW,337,3.7,-999.0,12,-99.99,,,0.00,Acu-Link.com,2013-04-12 16:36:00,
2013-04-12 10:51:00,75.4,19.3,29.72,NNE,22,4.2,-999.0,12,-99.99,,,0.00,Acu-Link.com,2013-04-12 16:51:00,
2013-04-12 11:06:00,79.9,18.5,29.73,WNW,292,3.2,-999.0,10,-99.99,,,0.00,Acu-Link.com,2013-04-12 17:06:00,
2013-04-12 11:21:00,81.1,16.9,29.71,NNE,22,1.1,-999.0,9,-99.99,,,0.00,Acu-Link.com,2013-04-12 17:21:00,
2013-04-12 11:36:00,80.8,11.0,29.71,SE,135,5.3,-999.0,7,-99.99,,,0.00,Acu-Link.com,2013-04-12 17:36:00,
2013-04-12 12:07:00,81.0,7.7,29.70,ESE,112,2.7,-999.0,6,-99.99,,,0.00,Acu-Link.com,2013-04-12 18:07:00,
2013-04-12 13:38:00,86.5,2.7,29.66,South,180,3.7,-999.0,4,-99.99,,,0.00,Acu-Link.com,2013-04-12 19:38:00,
2013-04-12 13:53:00,88.5,-23.8,29.65,SE,135,3.2,-999.0,1,-99.99,,,0.00,Acu-Link.com,2013-04-12 19:53:00,
2013-04-12 14:08:00,86.9,-3.1,29.65,West,270,1.7,-999.0,3,-99.99,,,0.00,Acu-Link.com,2013-04-12 20:08:00,
2013-04-12 14:23:00,84.0,1.0,29.64,South,180,6.3,-999.0,4,-99.99,,,0.00,Acu-Link.com,2013-04-12 20:23:00,
2013-04-12 14:38:00,85.1,6.6,29.63,NE,45,2.2,-999.0,5,-99.99,,,0.00,Acu-Link.com,2013-04-12 20:38:00,
2013-04-12 14:54:00,83.5,5.5,29.62,ESE,112,6.8,-999.0,5,-99.99,,,0.00,Acu-Link.com,2013-04-12 20:54:00,
2013-04-12 15:09:00,86.0,-25.3,29.62,SW,225,2.7,-999.0,1,-99.99,,,0.00,Acu-Link.com,2013-04-12 21:09:00,
2013-04-12 15:24:00,84.7,-26.1,29.61,SW,225,5.8,-999.0,1,-99.99,,,0.00,Acu-Link.com,2013-04-12 21:24:00,
2013-04-12 15:39:00,82.9,-27.1,29.60,SSW,202,2.7,-999.0,1,-99.99,,,0.00,Acu-Link.com,2013-04-12 21:39:00,
2013-04-12 15:55:00,83.7,-26.6,29.60,WSW,247,7.8,-999.0,1,-99.99,,,0.00,Acu-Link.com,2013-04-12 21:55:00,
2013-04-12 16:10:00,84.7,-26.1,29.59,West,270,6.3,-999.0,1,-99.99,,,0.00,Acu-Link.com,2013-04-12 22:10:00,
2013-04-12 16:25:00,83.1,-27.0,29.59,SSE,157,6.8,-999.0,1,-99.99,,,0.00,Acu-Link.com,2013-04-12 22:25:00,
2013-04-12 16:40:00,85.6,-25.5,29.59,WSW,247,2.2,-999.0,1,-99.99,,,0.00,Acu-Link.com,2013-04-12 22:40:00,
2013-04-12 16:55:00,84.6,-26.1,29.59,WSW,247,6.3,-999.0,1,-99.99,,,0.00,Acu-Link.com,2013-04-12 22:55:00,
2013-04-12 17:10:00,84.0,-26.5,29.58,WSW,247,7.8,-999.0,1,-99.99,,,0.00,Acu-Link.com,2013-04-12 23:10:00,
2013-04-12 17:25:00,81.5,-27.9,29.58,WSW,247,4.2,-999.0,1,-99.99,,,0.00,Acu-Link.com,2013-04-12 23:25:00,
2013-04-12 17:40:00,83.5,-26.8,29.57,West,270,5.8,-999.0,1,-99.99,,,0.00,Acu-Link.com,2013-04-12 23:40:00,
2013-04-12 17:55:00,81.7,-27.8,29.57,SSE,157,1.1,-999.0,1,-99.99,,,0.00,Acu-Link.com,2013-04-12 23:55:00,
2013-04-12 18:11:00,78.8,-16.5,29.58,WSW,247,4.7,-999.0,2,-99.99,,,0.00,Acu-Link.com,2013-04-13 00:11:00,
2013-04-12 18:26:00,79.3,-16.2,29.59,SW,225,2.2,-999.0,2,-99.99,,,0.00,Acu-Link.com,2013-04-13 00:26:00,
2013-04-12 18:41:00,78.1,-8.9,29.57,WNW,292,0.0,-999.0,3,-99.99,,,0.00,Acu-Link.com,2013-04-13 00:41:00,
2013-04-12 18:56:00,76.5,0.6,29.58,WNW,292,4.7,-999.0,5,-99.99,,,0.00,Acu-Link.com,2013-04-13 00:56:00,
2013-04-12 19:11:00,75.4,3.7,29.58,WNW,292,0.0,-999.0,6,-99.99,,,0.00,Acu-Link.com,2013-04-13 01:11:00,
2013-04-12 19:26:00,73.8,2.6,29.58,WNW,292,3.2,-999.0,6,-99.99,,,0.00,Acu-Link.com,2013-04-13 01:26:00,
2013-04-12 19:41:00,73.4,2.3,29.58,NE,45,3.7,-999.0,6,-99.99,,,0.00,Acu-Link.com,2013-04-13 01:41:00,
2013-04-12 19:56:00,72.9,5.2,29.59,NE,45,1.7,-999.0,7,-99.99,,,0.00,Acu-Link.com,2013-04-13 01:56:00,
2013-04-12 20:11:00,71.8,7.3,29.58,NE,45,2.2,-999.0,8,-99.99,,,0.00,Acu-Link.com,2013-04-13 02:11:00,
2013-04-12 20:27:00,71.1,6.8,29.59,NE,45,2.7,-999.0,8,-99.99,,,0.00,Acu-Link.com,2013-04-13 02:27:00,
2013-04-12 20:42:00,70.7,6.5,29.59,NE,45,3.2,-999.0,8,-99.99,,,0.00,Acu-Link.com,2013-04-13 02:42:00,
2013-04-12 20:57:00,70.2,8.8,29.60,NE,45,1.7,-999.0,9,-99.99,,,0.00,Acu-Link.com,2013-04-13 02:57:00,
2013-04-12 21:12:00,69.8,10.8,29.61,NE,45,4.2,-999.0,10,-99.99,,,0.00,Acu-Link.com,2013-04-13 03:12:00,
2013-04-12 21:27:00,69.1,12.4,29.60,NE,45,4.7,-999.0,11,-99.99,,,0.00,Acu-Link.com,2013-04-13 03:27:00,
2013-04-12 21:42:00,68.5,11.9,29.62,North,0,6.8,-999.0,11,-99.99,,,0.00,Acu-Link.com,2013-04-13 03:42:00,
2013-04-12 21:57:00,68.0,13.5,29.62,NNW,337,6.3,-999.0,12,-99.99,,,0.00,Acu-Link.com,2013-04-13 03:57:00,
2013-04-12 22:12:00,67.1,12.8,29.63,North,0,4.7,-999.0,12,-99.99,,,0.00,Acu-Link.com,2013-04-13 04:12:00,
2013-04-12 22:27:00,66.0,13.8,29.63,North,0,3.2,-999.0,13,-99.99,,,0.00,Acu-Link.com,2013-04-13 04:27:00,
2013-04-12 22:43:00,64.9,14.6,29.64,North,0,3.2,-999.0,14,-99.99,,,0.00,Acu-Link.com,2013-04-13 04:43:00,
2013-04-12 22:58:00,64.2,15.6,29.64,NNW,337,4.2,-999.0,15,-99.99,,,0.00,Acu-Link.com,2013-04-13 04:58:00,
2013-04-12 23:13:00,63.7,16.7,29.64,NNW,337,3.7,-999.0,16,-99.99,,,0.00,Acu-Link.com,2013-04-13 05:13:00,
2013-04-12 23:28:00,63.5,16.5,29.65,North,0,2.2,-999.0,16,-99.99,,,0.00,Acu-Link.com,2013-04-13 05:28:00,
2013-04-12 23:43:00,63.5,16.5,29.64,North,0,3.7,-999.0,16,-99.99,,,0.00,Acu-Link.com,2013-04-13 05:43:00,
2013-04-12 23:58:00,63.5,16.5,29.64,NNW,337,3.2,-999.0,16,-99.99,,,0.00,Acu-Link.com,2013-04-13 05:58:00,